Location: Unspecified
(41.5000°N, 0.0000°E)
Time: 20:57:51
(UTC+00:00)

deb Explorer IX - Pass Details

Date: 23 June 2019
Orbit: 539 x 1112 km, 38.8° (Epoch: 17 July)

Event Time Altitude Azimuth Distance (km) Brightness Sun altitude
Rises 20:05:40 0° 271° (W) 3,855 ? -5.1°
Reaches altitude 10° 20:11:32 10° 234° (SW) 2,770 ? -6.0°
Maximum altitude 20:12:34 10° 225° (SW) 2,715 ? -6.1°
Drops below altitude 10° 20:13:35 10° 216° (SW) 2,713 ? -6.3°
Sets 20:18:57 0° 178° (S) 3,478 ? -7.0°
